Weather Roundup
Issued by NWS Springfield, MO

Home | Current Version | Previous Version | Text Only | Print | Product List | Glossary On
Versions: 1 2 3 4 5 6 7 8 9 10 11 12 13 14 15 16 17 18 19 20 21 22 23 24 25 26 27 28 29 30 31 32 33 34 35 36 37 38 39 40 41 42 43 44 45 46 47 48 49 50
000
NZUS99 KSGF 020307
HRRSGF

HOURLY WEATHER
NATIONAL WEATHER SERVICE SPRINGFIELD MO
900 PM CST SUN MAR 01 2015

......SGF CWA......

CITY           SKY/WX    TMP DP  RH WIND       PRES   REMARKS
SPRINGFIELD    CLOUDY    29  23  78 N5        30.41R WCI  24
JOPLIN         PTCLDY    27  21  78 NE6       30.44R WCI  20
WEST PLAINS    CLOUDY    31  25  78 N7        30.40R WCI  24
ROLLA          MOCLDY    25  20  81 NW5       30.42R WCI  19
OSAGE BEACH    PTCLDY    25  19  80 CALM      30.45R
BRANSON        CLOUDY    30  28  93 CALM      30.41R

......SURROUNDING SGF CWA......

CITY           SKY/WX    TMP DP  RH WIND       PRES   REMARKS
CHANUTE        FAIR      22  19  89 CALM      30.45R
PARSONS        PTCLDY    25  20  81 CALM      30.46R
COFFEYVILLE    PTCLDY    26  21  81 N6        30.46R WCI  19
EMPORIA        PTCLDY    27  20  75 NE3       30.43R
GROVE OK       PTCLDY    32  28  86 CALM      30.45R
ROGERS AR      CLOUDY    29  27  92 N8        30.40R WCI  21
SILOAM SPRINGS CLOUDY    30  25  80 CALM      30.41S
HARRISON AR    CLOUDY    32  30  92 NW5       30.40R FOG     WCI  27
NEAR YELLVILLE CLOUDY    34  28  80 N6        30.40R WCI  29

......KANSAS AND MISSOURI......

CITY           SKY/WX    TMP DP  RH WIND       PRES   REMARKS
KANSAS CTY INT FAIR      25  19  78 CALM      30.44R
DOWNTOWN KC    CLEAR     29  21  72 CALM      30.45R
COLUMBIA       MOCLDY    20  17  88 SW3       30.44R
SEDALIA        PTCLDY    26  18  71 CALM      30.46R
ST JOSEPH      MOCLDY    27  22  81 CALM      30.46R
ST LOUIS       MOCLDY    26  19  74 CALM      30.45R
SPIRIT OF STL  PTCLDY    16  15  96 SW3       30.45R
KIRKSVILLE     MOCLDY    23  19  85 W5        30.44R WCI  17
WICHITA        MOCLDY    25  18  74 CALM      30.44R
TOPEKA         PTCLDY    26  21  81 CALM      30.45S
OLATHE         PTCLDY    27  18  69 CALM      30.43R

......TENNESSEE......

CITY           SKY/WX    TMP DP  RH WIND       PRES   REMARKS
MEMPHIS        LGT RAIN  39  36  89 N8        30.38R FOG     WCI  33
NASHVILLE      FOG       48  48 100 S3        30.30F VSB 1/2

......ARKANSAS.......

CITY           SKY/WX    TMP DP  RH WIND       PRES   REMARKS
FAYETTEVILLE   CLOUDY    31  31 100 N5        30.39R FOG     WCI  26
FT SMITH       CLOUDY    37  32  82 NW3       30.41R
LITTLE ROCK    CLOUDY    41  37  86 N10       30.39R

......OKLAHOMA.......

CITY           SKY/WX    TMP DP  RH WIND       PRES   REMARKS
TULSA          CLOUDY    33  25  72 N5        30.45R WCI  29
PONCA CITY     PTCLDY    24  21  88 N3        30.46R
MCALESTER      CLOUDY    33  29  85 N6        30.43R WCI  28
OKLAHOMA CITY  PTCLDY    31  22  69 N9        30.42R WCI  23

......IOWA............

CITY           SKY/WX    TMP DP  RH WIND       PRES   REMARKS
DES MOINES     PTCLDY    25  14  63 S7        30.40S WCI  17
QUAD CITIES    PTCLDY    21  10  62 W9        30.40R WCI  11

......ILLINOIS........

CITY           SKY/WX    TMP DP  RH WIND       PRES   REMARKS
QUINCY         MOCLDY    24  17  74 W3        30.43R
CHICAGO        CLEAR     19  13  77 W13       30.29R WCI   6




USA.gov is the U.S. government's official web portal to all federal, state and local government web resources and services.